Location: Biberach+an+der+Riss
(48.0937°N, 9.7888°E)
Time: 10:11:31
(UTC+01:00)

Tiangong 2 - Visible Passes

Search period start: 20 November 2017 00:00
Search period end: 30 November 2017 00:00
Orbit: 386 x 391 km, 42.8° (Epoch: 20 November)

Date Brightness Start Highest point End Pass type
(mag) Time Alt. Az. Time Alt. Az. Time Alt. Az.
27 Nov 4.0 06:49:59 10° SSW 06:52:03 16° SSE 06:54:07 10° ESE visible
28 Nov 4.2 05:52:59 10° S 05:54:04 11° SSE 05:55:09 10° SE visible
29 Nov 3.4 06:29:38 10° SW 06:32:11 22° SSE 06:34:43 10° ESE visible
